Weather History for Figari, France

Change the Weather History Date:

Monday, November 5, 2012

  Actual Average Record
Temperature  
Mean Temperature 64 °F -  
Max Temperature 69 °F 60 °F 73 °F (2004)
Min Temperature 59 °F 48 °F 33 °F (2006)
Degree Days  
Heating Degree Days 1    
Growing Degree Days 14 (Base 50)    
Moisture  
Dew Point 55 °F    
Average Humidity 71    
Maximum Humidity 94    
Minimum Humidity 56    
Precipitation  
Precipitation 0.00 in - - ()
Sea Level Pressure  
Sea Level Pressure 29.76 in    
Wind  
Wind Speed 16 mph ()    
Max Wind Speed 26 mph    
Max Gust Speed 40 mph    
Visibility 6.2 miles    
Events Rain    
Averages and records for this station are not official NWS values.
T = Trace of Precipitation, MM = Missing Value Source: Averaged Metar Reports

Daily Weather History Graph

Daily Weather History Graph

Search for Another Location

Airport:

Trip Planner

Search our weather history database for the weather conditions in past years. The results will help you decide how hot, cold, wet, or windy it might be!

Date:

Astronomy

Nov. 05, 2012 Rise Set
Actual Time 7:00 AM CET 5:13 PM CET
Civil Twilight 6:31 AM CET 5:42 PM CET
Nautical Twilight 5:58 AM CET 6:15 PM CET
Astronomical Twilight 5:26 AM CET 6:47 PM CET
Moon 10:34 PM CET (11/5) 12:10 PM CET (11/5)
Length of Visible Light 11h 11m
Length of Day
10h 13m
Waning Gibbous, 65% of the Moon is Illuminated
Nov 5
Waning Gibbous
Nov 7
Last Quarter
Nov 13
New
Nov 20
First Quarter
Nov 28
Full

Hourly Weather History & Observations

Time (CET) Temp. Dew Point Humidity Pressure Visibility Wind Dir Wind Speed Gust Speed Precip Events Conditions
12:00 AM 68.0 °F 62.6 °F 83% 29.65 in 6.2 mi WSW 10.4 mph - N/A   Overcast
12:30 AM 68.0 °F 62.6 °F 83% 29.65 in 6.2 mi WSW 11.5 mph - N/A   Overcast
1:00 AM 68.0 °F 62.6 °F 83% 29.65 in 6.2 mi West 13.8 mph 25.3 mph N/A   Overcast
1:30 AM 68.0 °F 64.4 °F 88% 29.65 in 6.2 mi WSW 15.0 mph - N/A   Overcast
2:00 AM 68.0 °F 64.4 °F 88% 29.65 in 6.2 mi WSW 13.8 mph - N/A   Overcast
2:30 AM 69.8 °F 64.4 °F 83% 29.62 in 6.2 mi WSW 18.4 mph 31.1 mph N/A   Overcast
3:00 AM 69.8 °F 64.4 °F 83% 29.62 in 6.2 mi WSW 18.4 mph - N/A   Overcast
3:30 AM 68.0 °F 64.4 °F 88% 29.62 in 6.2 mi WSW 19.6 mph 34.5 mph N/A   Overcast
4:00 AM 68.0 °F 64.4 °F 88% 29.62 in 6.2 mi WSW 19.6 mph 32.2 mph N/A   Overcast
4:30 AM 68.0 °F 64.4 °F 88% 29.62 in 5.6 mi WSW 17.3 mph - N/A   Overcast
5:00 AM 68.0 °F 64.4 °F 88% 29.62 in 5.6 mi WSW 17.3 mph - N/A   Overcast
5:30 AM 68.0 °F 64.4 °F 88% 29.62 in 5.0 mi WSW 17.3 mph - N/A Rain Light Rain
6:00 AM 66.2 °F 64.4 °F 94% 29.65 in 6.2 mi WSW 15.0 mph - N/A   Overcast
6:30 AM 66.2 °F 62.6 °F 88% 29.65 in 6.2 mi West 12.7 mph - N/A   Overcast
7:00 AM 66.2 °F 60.8 °F 83% 29.65 in 6.2 mi West 17.3 mph - N/A   Overcast
7:30 AM 66.2 °F 57.2 °F 73% 29.65 in 6.2 mi West 17.3 mph - N/A   Overcast
8:00 AM 64.4 °F 55.4 °F 73% 29.65 in 6.2 mi West 16.1 mph - N/A   Mostly Cloudy
8:30 AM 66.2 °F 57.2 °F 73% 29.68 in 6.2 mi West 18.4 mph 31.1 mph N/A   Mostly Cloudy
9:00 AM 64.4 °F 55.4 °F 73% 29.71 in 6.2 mi West 18.4 mph - N/A   Overcast
9:30 AM 66.2 °F 55.4 °F 68% 29.71 in 6.2 mi West 23.0 mph 35.7 mph N/A   Overcast
10:00 AM 66.2 °F 55.4 °F 68% 29.71 in 6.2 mi West 21.9 mph 33.4 mph N/A   Mostly Cloudy
10:30 AM 64.4 °F 53.6 °F 68% 29.74 in 6.2 mi West 19.6 mph 32.2 mph N/A   Mostly Cloudy
11:00 AM 66.2 °F 51.8 °F 60% 29.74 in 6.2 mi West 19.6 mph 32.2 mph N/A   Scattered Clouds
11:30 AM 66.2 °F 53.6 °F 64% 29.77 in 6.2 mi West 19.6 mph 34.5 mph N/A   Unknown
12:00 PM 68.0 °F 53.6 °F 60% 29.77 in 6.2 mi West 20.7 mph 33.4 mph N/A   Scattered Clouds
12:30 PM 66.2 °F 51.8 °F 60% 29.77 in 6.2 mi West 23.0 mph 35.7 mph N/A   Scattered Clouds
1:00 PM 66.2 °F 53.6 °F 64% 29.77 in 6.2 mi West 20.7 mph - N/A   Unknown
1:30 PM 66.2 °F 51.8 °F 60% 29.77 in 6.2 mi West 26.5 mph 40.3 mph N/A   Unknown
2:00 PM 66.2 °F 51.8 °F 60% 29.77 in 6.2 mi West 19.6 mph - N/A   Unknown
2:30 PM 64.4 °F 50.0 °F 59% 29.77 in 6.2 mi West 21.9 mph - N/A   Unknown
3:00 PM 64.4 °F 48.2 °F 56% 29.80 in 6.2 mi West 20.7 mph - N/A   Unknown
3:30 PM 64.4 °F 48.2 °F 56% 29.80 in 6.2 mi West 21.9 mph - N/A   Unknown
4:00 PM 62.6 °F 48.2 °F 59% 29.83 in 6.2 mi WNW 26.5 mph 40.3 mph N/A   Unknown
4:30 PM 62.6 °F 48.2 °F 59% 29.83 in 6.2 mi West 20.7 mph 35.7 mph N/A   Unknown
5:00 PM 60.8 °F 48.2 °F 63% 29.86 in 6.2 mi West 19.6 mph 32.2 mph N/A   Unknown
5:30 PM 60.8 °F 48.2 °F 63% 29.86 in 6.2 mi WNW 19.6 mph - N/A   Unknown
6:00 PM 60.8 °F 48.2 °F 63% 29.89 in 6.2 mi West 17.3 mph 32.2 mph N/A   Unknown
6:30 PM 60.8 °F 48.2 °F 63% 29.89 in 6.2 mi West 18.4 mph 32.2 mph N/A   Unknown
7:00 PM 60.8 °F 48.2 °F 63% 29.92 in 6.2 mi West 19.6 mph - N/A   Unknown
7:30 PM 60.8 °F 48.2 °F 63% 29.89 in 6.2 mi West 18.4 mph 31.1 mph N/A   Partly Cloudy
8:00 PM 60.8 °F 48.2 °F 63% 29.92 in 6.2 mi West 21.9 mph 33.4 mph N/A   Partly Cloudy
8:30 PM 60.8 °F 48.2 °F 63% 29.92 in 6.2 mi West 19.6 mph - N/A   Partly Cloudy
9:00 PM 60.8 °F 48.2 °F 63% 29.92 in 6.2 mi West 16.1 mph - N/A   Partly Cloudy
9:30 PM 60.8 °F 46.4 °F 59% 29.92 in 6.2 mi West 15.0 mph - N/A   Partly Cloudy
10:00 PM 60.8 °F 48.2 °F 63% 29.95 in 6.2 mi West 16.1 mph - N/A   Scattered Clouds
10:30 PM 60.8 °F 46.4 °F 59% 29.95 in 6.2 mi West 17.3 mph - N/A   Partly Cloudy
11:00 PM 59.0 °F 48.2 °F 67% 29.95 in 6.2 mi West 17.3 mph - N/A   Partly Cloudy
11:30 PM 59.0 °F 48.2 °F 67% 29.98 in 6.2 mi West 13.8 mph - N/A   Partly Cloudy